date,time,DOY,Ta_1_1_1,RH_1_1_1,LWin_1_1_1,LWout_1_1_1,SWin_1_1_1,SWout_1_1_1,PPFD_1_1_1,SWC_1_1_1,Ts_1_1_1
[yyyy-mm-dd],[HH:MM],[ddd.ddd],[K],[%],[W+1m-2],[W+1m-2],[W+1m-2],[W+1m-2],[µmol+1m-2s-1],[m+3m-3],[K]
2013-08-13,00:30,225.020,282.91000000000003,79.812666666666672,-9.9499999999999993,-9999.0,0.80899999999999983,-3.7803333333333327,1.00000000000000002E-003,-9999.0,273.15999999999991
2013-08-13,01:00,225.041,282.56066666666669,81.015333333333345,-9.9055555555555550,-9999.0,0.55366666666666664,-3.7713333333333319,0.0000000000000000,-9999.0,273.15999999999991
2013-08-13,01:30,225.062,282.56066666666669,79.752666666666670,-9.9499999999999993,-9999.0,0.68466666666666665,-3.7183333333333333,0.0000000000000000,-9999.0,273.15999999999991
2013-08-13,02:00,225.083,282.12066666666669,80.343666666666678,-9.2366666666666628,-9999.0,0.53333333333333321,-3.7403333333333331,0.0000000000000000,-9999.0,273.15999999999991
2013-08-13,02:30,225.104,281.93033333333341,82.036666666666676,-8.9366666666666674,-9999.0,0.57933333333333314,-3.7223333333333324,6.66666666666666644E-004,-9999.0,273.15999999999991
2013-08-13,03:00,225.124,281.93466666666677,82.170000000000030,-8.2543333333333315,-9999.0,0.67200000000000004,-3.1236666666666668,0.0000000000000000,-9999.0,273.15999999999991
2013-08-13,03:30,225.145,281.85799999999995,86.866999999999976,-6.5130000000000008,-9999.0,-0.19366666666666665,-1.0086666666666668,0.0000000000000000,-9999.0,273.15999999999991
2013-08-13,04:00,225.166,281.84100000000001,93.417000000000002,-6.7070000000000025,-9999.0,-6.30000000000000004E-002,-1.8160000000000001,0.0000000000000000,-9999.0,273.15999999999991
2013-08-13,04:30,225.187,281.77233333333334,95.550999999999974,-6.8343333333333343,-9999.0,0.27766666666666667,-2.8639999999999994,4.63333333333333375E-002,-9999.0,273.15999999999991
2013-08-13,05:00,225.208,281.73900000000009,96.153666666666652,-6.7336666666666671,-9999.0,0.85466666666666646,-1.3700000000000001,4.4426666666666668,-9999.0,273.15999999999991
2013-08-13,05:30,225.229,281.51599999999996,96.545333333333346,-6.9483333333333359,-9999.0,7.1053333333333333,27.170666666666669,48.315333333333328,-9999.0,273.15999999999991
2013-08-13,06:00,225.249,281.82399999999996,95.980000000000004,-7.3460000000000010,-9999.0,17.474666666666664,85.716666666666654,149.58333333333334,-9999.0,273.15999999999991
2013-08-13,06:30,225.270,282.32199999999995,95.455999999999989,-6.3599999999999994,-9999.0,18.407000000000000,105.37466666666666,198.40100000000004,-9999.0,273.15999999999991
2013-08-13,07:00,225.291,282.94100000000003,94.749333333333354,-7.0649999999999986,-9999.0,41.114333333333335,235.67800000000000,431.15733333333333,-9999.0,273.15999999999991
2013-08-13,07:30,225.312,283.66533333333331,91.097999999999999,-9.0116666666666649,-9999.0,58.062000000000005,348.89933333333323,656.98133333333317,-9999.0,273.15999999999991
2013-08-13,08:00,225.333,284.23633333333333,88.044999999999987,-7.9006896551724139,-9999.0,64.153000000000006,388.49333333333340,738.10033333333331,-9999.0,273.15999999999991
2013-08-13,08:30,225.354,284.81933333333342,82.401999999999973,-6.9556666666666667,-9999.0,86.879666666666665,511.49800000000010,977.34233333333350,-9999.0,273.15999999999991
2013-08-13,09:00,225.374,285.44033333333329,76.814666666666653,-7.0687500000000005,-9999.0,68.491000000000000,415.23033333333325,802.39433333333352,-9999.0,273.15999999999991
2013-08-13,09:30,225.395,285.36000000000007,75.366999999999990,-6.7686666666666655,-9999.0,53.569000000000003,327.25833333333327,645.46433333333334,-9999.0,273.15999999999991
2013-08-13,10:00,225.416,285.47166666666664,72.483333333333348,-6.0706666666666660,-9999.0,68.316666666666663,418.54700000000008,831.36000000000013,-9999.0,273.15999999999991
2013-08-13,10:30,225.437,285.83566666666667,68.050333333333342,-6.0310000000000006,-9999.0,85.410333333333313,522.61233333333337,1033.9703333333334,-9999.0,273.15999999999991
2013-08-13,11:00,225.458,286.15833333333336,65.719000000000008,-8.0513333333333339,-9999.0,69.791333333333341,420.80266666666660,827.76566666666668,-9999.0,273.15999999999991
2013-08-13,11:30,225.479,286.30166666666668,62.770666666666664,-7.4300000000000006,-9999.0,68.954666666666668,419.08399999999989,836.71600000000012,-9999.0,273.15999999999991
2013-08-13,12:00,225.499,286.33733333333333,62.191000000000003,-5.9770000000000003,-9999.0,89.385999999999996,541.06533333333334,1071.1496666666667,-9999.0,273.15999999999991
2013-08-13,12:30,225.520,286.86800000000011,55.715666666666671,-6.0803448275862078,-9999.0,98.921333333333351,604.60166666666669,1203.3879999999997,-9999.0,273.15999999999991
2013-08-13,13:00,225.541,286.88566666666668,53.208333333333329,-5.9611764705882351,-9999.0,97.453999999999965,601.05533333333346,1192.7686666666668,-9999.0,273.15999999999991
2013-08-13,13:30,225.562,286.76800000000009,56.059000000000005,-5.9906896551724156,-9999.0,87.956333333333333,534.61166666666657,1062.2746666666667,-9999.0,273.15999999999991
2013-08-13,14:00,225.583,286.89000000000004,53.856999999999978,-4.5885714285714281,-9999.0,76.323000000000008,459.70466666666658,914.71666666666670,-9999.0,273.15999999999991
2013-08-13,14:30,225.604,287.20399999999995,49.796333333333337,-5.5746428571428561,-9999.0,113.17433333333334,676.76300000000003,1345.0853333333332,-9999.0,273.15999999999991
2013-08-13,15:00,225.624,287.23733333333331,49.613333333333344,-6.3868181818181817,-9999.0,79.231999999999999,468.44266666666681,924.32199999999989,-9999.0,273.15999999999991
2013-08-13,15:30,225.645,286.97166666666669,51.515333333333324,-6.5585000000000004,-9999.0,65.992000000000004,386.43399999999991,779.98966666666661,-9999.0,273.15999999999991
2013-08-13,16:00,225.666,287.29800000000006,51.050333333333334,-6.8773913043478263,-9999.0,94.782999999999987,539.47000000000003,1057.5153333333335,-9999.0,273.15999999999991
2013-08-13,16:30,225.687,286.93433333333331,52.120999999999995,-6.7150000000000007,-9999.0,59.835666666666661,339.56233333333336,675.35733333333349,-9999.0,273.15999999999991
2013-08-13,17:00,225.708,286.98766666666666,53.827000000000005,-8.6592857142857138,-9999.0,64.895333333333340,342.16233333333332,675.73233333333326,-9999.0,273.15999999999991
2013-08-13,17:30,225.729,287.13066666666668,53.402666666666669,-9999.0,-9999.0,57.846000000000004,286.95666666666671,569.43499999999995,-9999.0,273.15999999999991
2013-08-13,18:00,225.749,286.76700000000000,55.714666666666673,-9999.0,-9999.0,42.726666666666667,189.52000000000001,374.74233333333331,-9999.0,273.15999999999991
2013-08-13,18:30,225.770,286.33266666666674,58.623000000000005,-9999.0,-9999.0,28.081666666666663,104.46733333333333,208.08033333333330,-9999.0,273.15999999999991
2013-08-13,19:00,225.791,285.59933333333339,61.401333333333326,-9999.0,-9999.0,12.998666666666663,36.313333333333340,76.224333333333334,-9999.0,273.15999999999991
2013-08-13,19:30,225.812,284.77566666666661,65.776999999999987,-9999.0,-9999.0,1.0646666666666669,-0.83099999999999963,9.2816666666666645,-9999.0,273.15999999999991
2013-08-13,20:00,225.833,284.20999999999998,69.780999999999977,-9999.0,-9999.0,0.48466666666666669,-4.7069999999999990,0.15266666666666667,-9999.0,273.15999999999991
2013-08-13,20:30,225.854,283.75266666666670,73.541666666666700,-9999.0,-9999.0,0.40066666666666678,-4.7510000000000012,-3.33333333333333322E-004,-9999.0,273.15999999999991
2013-08-13,21:00,225.874,283.51433333333341,75.899333333333317,-9999.0,-9999.0,0.51733333333333331,-4.6586666666666678,3.33333333333333322E-004,-9999.0,273.15999999999991
2013-08-13,21:30,225.895,283.33600000000007,76.196333333333328,-9999.0,-9999.0,0.24433333333333326,-4.8649999999999993,0.0000000000000000,-9999.0,273.15999999999991
2013-08-13,22:00,225.916,283.55066666666676,75.705999999999989,-9999.0,-9999.0,0.51133333333333331,-4.7723333333333340,0.0000000000000000,-9999.0,273.15999999999991
2013-08-13,22:30,225.937,283.57966666666670,75.964666666666659,-9999.0,-9999.0,0.74633333333333352,-4.5100000000000007,6.66666666666666644E-004,-9999.0,273.15999999999991
2013-08-13,23:00,225.958,283.79766666666666,74.424666666666653,-9999.0,-9999.0,0.84866666666666646,-4.2543333333333333,0.0000000000000000,-9999.0,273.15999999999991
2013-08-13,23:30,225.979,283.71366666666665,74.906333333333336,-9999.0,-9999.0,0.78566666666666662,-4.4200000000000017,0.0000000000000000,-9999.0,273.15999999999991
2013-08-14,00:00,226.000,283.70366666666672,74.542999999999978,-9999.0,-9999.0,1.0170000000000001,-4.6560000000000006,0.0000000000000000,-9999.0,273.15999999999991
